CMP317 MPTO-SKBG

Flight info

Callsign CMP317
Flight time 1h 8m
Altitude 37000
Route REMAL1A REMAL DCT KUBEK UP790 EJA EJA2C
Aircraft B38M/M-SDE1FGHILORVWXY/HB1

Departure

Time 2026-05-07 17:08
Airport Tocumen International Airport (MPTO)

Arrival

Time 2026-05-07 18:16
Airport Palonegro Airport (SKBG)
Time Latitude Longitude Altitude Speed Heading
2026-05-07 16:43 9.06789 -79.38456 32 ft 0 kts 291°
2026-05-07 16:56 9.06785 -79.38446 32 ft 4 kts 286°
2026-05-07 16:56 9.06791 -79.38396 32 ft 4 kts 227°
2026-05-07 16:57 9.06804 -79.38386 32 ft 2 kts 205°
2026-05-07 16:57 9.06791 -79.38392 32 ft 0 kts 206°
2026-05-07 17:01 9.06790 -79.38392 32 ft 0 kts 206°
2026-05-07 17:01 9.06780 -79.38397 32 ft 3 kts 206°
2026-05-07 17:02 9.06739 -79.38418 32 ft 10 kts 207°
2026-05-07 17:02 9.06668 -79.38456 32 ft 13 kts 207°
2026-05-07 17:02 9.06581 -79.38501 32 ft 15 kts 208°
2026-05-07 17:02 9.06481 -79.38555 32 ft 17 kts 206°
2026-05-07 17:03 9.06379 -79.38608 32 ft 8 kts 207°
2026-05-07 17:03 9.06369 -79.38613 32 ft 2 kts 207°
2026-05-07 17:03 9.06342 -79.38623 32 ft 8 kts 188°
2026-05-07 17:03 9.06251 -79.38624 32 ft 19 kts 182°
2026-05-07 17:04 9.06116 -79.38668 32 ft 22 kts 209°
2026-05-07 17:04 9.05977 -79.38746 33 ft 24 kts 209°
2026-05-07 17:04 9.05828 -79.38832 32 ft 26 kts 210°
2026-05-07 17:04 9.05670 -79.38925 32 ft 27 kts 210°
2026-05-07 17:05 9.05518 -79.39014 32 ft 24 kts 210°
2026-05-07 17:05 9.05364 -79.39102 32 ft 26 kts 210°
2026-05-07 17:05 9.05204 -79.39193 32 ft 28 kts 210°
2026-05-07 17:05 9.05032 -79.39291 33 ft 28 kts 210°
2026-05-07 17:06 9.04868 -79.39379 33 ft 21 kts 185°
2026-05-07 17:06 9.04798 -79.39305 33 ft 15 kts 117°
2026-05-07 17:06 9.04832 -79.39221 34 ft 16 kts 30°
2026-05-07 17:06 9.04932 -79.39164 34 ft 19 kts 29°
2026-05-07 17:07 9.05149 -79.39040 33 ft 70 kts 29°
2026-05-07 17:07 9.05804 -79.38668 34 ft 143 kts 29°
2026-05-07 17:07 9.06822 -79.38062 168 ft 188 kts 31°
2026-05-07 17:07 9.08000 -79.37318 713 ft 210 kts 41°
2026-05-07 17:08 9.08596 -79.36075 1806 ft 201 kts 86°
2026-05-07 17:08 9.08145 -79.34672 2521 ft 226 kts 131°
2026-05-07 17:08 9.06909 -79.33604 3325 ft 243 kts 135°
2026-05-07 17:08 9.06077 -79.32117 4053 ft 258 kts 98°
2026-05-07 17:09 9.06118 -79.30275 4949 ft 267 kts 85°
2026-05-07 17:09 9.06166 -79.28390 6054 ft 270 kts 89°
2026-05-07 17:09 9.06164 -79.26475 7054 ft 275 kts 90°
2026-05-07 17:09 9.06141 -79.24531 8044 ft 278 kts 91°
2026-05-07 17:10 9.06106 -79.22569 9043 ft 282 kts 91°
2026-05-07 17:10 9.06064 -79.20577 10033 ft 284 kts 91°
2026-05-07 17:10 9.06016 -79.18534 10700 ft 299 kts 91°
2026-05-07 17:10 9.05962 -79.16388 11304 ft 312 kts 91°
2026-05-07 17:11 9.05906 -79.14177 12148 ft 314 kts 91°
2026-05-07 17:11 9.05848 -79.11970 13029 ft 317 kts 91°
2026-05-07 17:11 9.05789 -79.09729 13860 ft 319 kts 91°
2026-05-07 17:11 9.05729 -79.07470 14587 ft 323 kts 91°
2026-05-07 17:12 9.05669 -79.05188 15274 ft 327 kts 91°
2026-05-07 17:12 9.05608 -79.02904 15966 ft 330 kts 91°
2026-05-07 17:12 9.05546 -79.00565 16617 ft 335 kts 91°
2026-05-07 17:12 9.05483 -78.98196 17273 ft 339 kts 91°
2026-05-07 17:13 9.05419 -78.95800 17903 ft 343 kts 91°
2026-05-07 17:13 9.05354 -78.93373 18486 ft 347 kts 91°
2026-05-07 17:13 9.05289 -78.90924 19046 ft 350 kts 91°
2026-05-07 17:13 9.05223 -78.88454 19610 ft 352 kts 91°
2026-05-07 17:14 9.05156 -78.85979 20165 ft 354 kts 90°
2026-05-07 17:14 9.04943 -78.83484 20690 ft 358 kts 102°
2026-05-07 17:14 9.03987 -78.81147 21241 ft 364 kts 118°
2026-05-07 17:14 9.02656 -78.78947 21729 ft 368 kts 118°
2026-05-07 17:15 9.01299 -78.76731 22217 ft 371 kts 119°
2026-05-07 17:15 8.99923 -78.74518 22733 ft 374 kts 119°
2026-05-07 17:15 8.98542 -78.72321 23207 ft 377 kts 119°
2026-05-07 17:15 8.97117 -78.70066 23616 ft 381 kts 119°
2026-05-07 17:16 8.95682 -78.67803 24042 ft 383 kts 119°
2026-05-07 17:16 8.94230 -78.65513 24408 ft 387 kts 119°
2026-05-07 17:16 8.92780 -78.63229 24792 ft 389 kts 120°
2026-05-07 17:16 8.91310 -78.60914 25182 ft 392 kts 120°
2026-05-07 17:17 8.89833 -78.58587 25576 ft 395 kts 120°
2026-05-07 17:17 8.88340 -78.56236 25943 ft 398 kts 120°
2026-05-07 17:17 8.87348 -78.54675 26183 ft 400 kts 120°
2026-05-07 17:17 8.85324 -78.51488 26681 ft 404 kts 120°
2026-05-07 17:18 8.84313 -78.49896 26913 ft 406 kts 120°
2026-05-07 17:18 8.82779 -78.47484 27267 ft 409 kts 121°
2026-05-07 17:18 8.81244 -78.45066 27636 ft 411 kts 121°
2026-05-07 17:18 8.79696 -78.42632 27987 ft 415 kts 121°
2026-05-07 17:19 8.78146 -78.40195 28331 ft 417 kts 121°
2026-05-07 17:19 8.76552 -78.37688 28671 ft 421 kts 121°
2026-05-07 17:19 8.74965 -78.35192 29007 ft 423 kts 121°
2026-05-07 17:19 8.73367 -78.32681 29337 ft 426 kts 121°
2026-05-07 17:20 8.71758 -78.30152 29653 ft 429 kts 121°
2026-05-07 17:20 8.70138 -78.27606 29984 ft 432 kts 122°
2026-05-07 17:20 8.68527 -78.25076 30261 ft 434 kts 122°
2026-05-07 17:20 8.66899 -78.22519 30524 ft 436 kts 122°
2026-05-07 17:21 8.65254 -78.19934 30807 ft 438 kts 122°
2026-05-07 17:21 8.63599 -78.17336 31076 ft 441 kts 122°
2026-05-07 17:21 8.61933 -78.14721 31349 ft 443 kts 122°
2026-05-07 17:21 8.60263 -78.12100 31621 ft 445 kts 122°
2026-05-07 17:22 8.58579 -78.09458 31880 ft 447 kts 122°
2026-05-07 17:22 8.56890 -78.06808 32149 ft 449 kts 122°
2026-05-07 17:22 8.55191 -78.04142 32422 ft 451 kts 122°
2026-05-07 17:22 8.53506 -78.01500 32668 ft 454 kts 122°
2026-05-07 17:23 8.51802 -77.98827 32902 ft 456 kts 122°
2026-05-07 17:23 8.50079 -77.96126 33123 ft 459 kts 122°
2026-05-07 17:23 8.48343 -77.93406 33372 ft 461 kts 122°
2026-05-07 17:23 8.46599 -77.90673 33601 ft 463 kts 122°
2026-05-07 17:24 8.44847 -77.87929 33853 ft 465 kts 122°
2026-05-07 17:24 8.43089 -77.85174 34063 ft 467 kts 122°
2026-05-07 17:24 8.41328 -77.82417 34274 ft 469 kts 122°
2026-05-07 17:24 8.39806 -77.80033 34498 ft 469 kts 122°
2026-05-07 17:25 8.38037 -77.77264 34760 ft 469 kts 122°
2026-05-07 17:25 8.36266 -77.74491 35017 ft 470 kts 122°
2026-05-07 17:25 8.34493 -77.71717 35273 ft 470 kts 122°
2026-05-07 17:25 8.32718 -77.68940 35526 ft 470 kts 122°
2026-05-07 17:26 8.30942 -77.66162 35796 ft 470 kts 122°
2026-05-07 17:26 8.29198 -77.63434 36040 ft 471 kts 122°
2026-05-07 17:26 8.27422 -77.60657 36287 ft 471 kts 122°
2026-05-07 17:26 8.25657 -77.57897 36535 ft 471 kts 122°
2026-05-07 17:27 8.23879 -77.55119 36780 ft 471 kts 122°
2026-05-07 17:27 8.22481 -77.52935 36923 ft 472 kts 122°
2026-05-07 17:27 8.19272 -77.47921 36940 ft 470 kts 122°
2026-05-07 17:28 8.15900 -77.42655 36944 ft 470 kts 122°
2026-05-07 17:28 8.12353 -77.37118 36940 ft 471 kts 122°
2026-05-07 17:29 8.08795 -77.31564 36938 ft 471 kts 122°
2026-05-07 17:29 8.05238 -77.26014 36941 ft 471 kts 122°
2026-05-07 17:30 8.02163 -77.20222 36920 ft 466 kts 104°
2026-05-07 17:30 8.00315 -77.13953 36917 ft 468 kts 105°
2026-05-07 17:31 7.98478 -77.07654 36919 ft 468 kts 104°
2026-05-07 17:31 7.96659 -77.01342 36920 ft 468 kts 104°
2026-05-07 17:32 7.94853 -76.95077 36922 ft 468 kts 104°
2026-05-07 17:32 7.93040 -76.88789 36916 ft 468 kts 104°
2026-05-07 17:33 7.91222 -76.82485 36935 ft 468 kts 104°
2026-05-07 17:33 7.89401 -76.76178 36937 ft 468 kts 104°
2026-05-07 17:34 7.87581 -76.69877 36940 ft 468 kts 105°
2026-05-07 17:34 7.85763 -76.63588 36938 ft 468 kts 105°
2026-05-07 17:35 7.83941 -76.57287 36938 ft 468 kts 105°
2026-05-07 17:35 7.82117 -76.50985 36937 ft 468 kts 105°
2026-05-07 17:36 7.80301 -76.44714 36934 ft 468 kts 105°
2026-05-07 17:36 7.78479 -76.38426 36933 ft 468 kts 105°
2026-05-07 17:37 7.76651 -76.32119 36944 ft 468 kts 105°
2026-05-07 17:37 7.74824 -76.25820 36937 ft 468 kts 105°
2026-05-07 17:38 7.72991 -76.19503 36939 ft 470 kts 105°
2026-05-07 17:38 7.71155 -76.13182 36937 ft 470 kts 105°
2026-05-07 17:39 7.69315 -76.06851 36939 ft 470 kts 105°
2026-05-07 17:39 7.67487 -76.00561 36940 ft 470 kts 105°
2026-05-07 17:40 7.65650 -75.94249 36963 ft 470 kts 105°
2026-05-07 17:40 7.63808 -75.87921 36956 ft 470 kts 105°
2026-05-07 17:41 7.61966 -75.81598 36955 ft 470 kts 105°
2026-05-07 17:41 7.60120 -75.75262 36958 ft 470 kts 105°
2026-05-07 17:42 7.58285 -75.68969 36951 ft 469 kts 105°
2026-05-07 17:42 7.56449 -75.62676 36952 ft 470 kts 105°
2026-05-07 17:43 7.54604 -75.56359 36939 ft 469 kts 105°
2026-05-07 17:43 7.52773 -75.50088 36942 ft 469 kts 105°
2026-05-07 17:44 7.50931 -75.43786 36931 ft 469 kts 105°
2026-05-07 17:44 7.49088 -75.37486 36949 ft 468 kts 105°
2026-05-07 17:45 7.47250 -75.31203 36941 ft 468 kts 105°
2026-05-07 17:45 7.45406 -75.24907 36943 ft 468 kts 105°
2026-05-07 17:46 7.43580 -75.18673 36927 ft 468 kts 105°
2026-05-07 17:46 7.41737 -75.12385 36927 ft 467 kts 105°
2026-05-07 17:47 7.39893 -75.06097 36923 ft 467 kts 105°
2026-05-07 17:47 7.38051 -74.99822 36918 ft 467 kts 106°
2026-05-07 17:48 7.36218 -74.93577 36923 ft 466 kts 106°
2026-05-07 17:48 7.34379 -74.87317 36917 ft 456 kts 106°
2026-05-07 17:49 7.33495 -74.84309 36929 ft 443 kts 105°
2026-05-07 17:49 7.32622 -74.81340 36937 ft 438 kts 106°
2026-05-07 17:49 7.30917 -74.75541 36930 ft 434 kts 106°
2026-05-07 17:50 7.29207 -74.69730 36908 ft 431 kts 106°
2026-05-07 17:50 7.27494 -74.63912 36914 ft 432 kts 106°
2026-05-07 17:51 7.26649 -74.61041 36707 ft 421 kts 106°
2026-05-07 17:51 7.25812 -74.58204 36187 ft 425 kts 106°
2026-05-07 17:51 7.24960 -74.55314 35520 ft 430 kts 106°
2026-05-07 17:51 7.24111 -74.52430 35012 ft 430 kts 107°
2026-05-07 17:52 7.23261 -74.49548 34562 ft 427 kts 107°
2026-05-07 17:52 7.22420 -74.46694 34110 ft 426 kts 107°
2026-05-07 17:52 7.21585 -74.43862 33538 ft 419 kts 107°
2026-05-07 17:52 7.20761 -74.41065 33008 ft 413 kts 107°
2026-05-07 17:53 7.19950 -74.38317 32552 ft 404 kts 107°
2026-05-07 17:53 7.19160 -74.35642 32125 ft 394 kts 107°
2026-05-07 17:53 7.18381 -74.33003 31737 ft 391 kts 107°
2026-05-07 17:53 7.17608 -74.30384 31311 ft 390 kts 107°
2026-05-07 17:54 7.16840 -74.27784 30841 ft 386 kts 107°
2026-05-07 17:54 7.16083 -74.25223 30428 ft 385 kts 107°
2026-05-07 17:54 7.15325 -74.22657 30022 ft 385 kts 107°
2026-05-07 17:54 7.14562 -74.20075 29532 ft 384 kts 107°
2026-05-07 17:55 7.13801 -74.17501 29065 ft 381 kts 106°
2026-05-07 17:55 7.13052 -74.14967 28633 ft 375 kts 106°
2026-05-07 17:55 7.12310 -74.12459 28268 ft 372 kts 106°
2026-05-07 17:55 7.11576 -74.09974 28014 ft 365 kts 106°
2026-05-07 17:56 7.10137 -74.05115 28015 ft 362 kts 106°
2026-05-07 17:56 7.08707 -74.00282 28013 ft 362 kts 106°
2026-05-07 17:57 7.07513 -73.96251 28006 ft 361 kts 106°
2026-05-07 17:57 7.06554 -73.93010 27995 ft 361 kts 106°
2026-05-07 17:57 7.05833 -73.90578 27995 ft 361 kts 106°
2026-05-07 17:58 7.05116 -73.88158 27995 ft 361 kts 106°
2026-05-07 17:58 7.04397 -73.85730 27995 ft 361 kts 106°
2026-05-07 17:58 7.03678 -73.83304 27996 ft 361 kts 106°
2026-05-07 17:58 7.02967 -73.80881 27995 ft 361 kts 104°
2026-05-07 17:59 7.01997 -73.75933 27928 ft 373 kts 101°
2026-05-07 17:59 7.01479 -73.73339 27856 ft 381 kts 101°
2026-05-07 17:59 7.00945 -73.70702 27668 ft 387 kts 101°
2026-05-07 18:00 7.00399 -73.68017 26933 ft 395 kts 101°
2026-05-07 18:00 6.99844 -73.65300 26322 ft 399 kts 101°
2026-05-07 18:00 6.99284 -73.62558 25716 ft 399 kts 100°
2026-05-07 18:00 6.98729 -73.59841 25125 ft 392 kts 100°
2026-05-07 18:01 6.98184 -73.57178 24557 ft 386 kts 101°
2026-05-07 18:01 6.97646 -73.54548 23997 ft 380 kts 100°
2026-05-07 18:01 6.97119 -73.51974 23419 ft 375 kts 101°
2026-05-07 18:01 6.96590 -73.49389 22498 ft 378 kts 101°
2026-05-07 18:02 6.95524 -73.44181 20762 ft 378 kts 101°
2026-05-07 18:02 6.94995 -73.41602 20085 ft 374 kts 101°
2026-05-07 18:02 6.94473 -73.39054 19424 ft 370 kts 101°
2026-05-07 18:03 6.93955 -73.36524 18707 ft 368 kts 101°
2026-05-07 18:03 6.93433 -73.33977 17618 ft 375 kts 101°
2026-05-07 18:03 6.92905 -73.31430 16572 ft 378 kts 103°
2026-05-07 18:03 6.91893 -73.28996 15518 ft 381 kts 124°
2026-05-07 18:04 6.90009 -73.27156 14530 ft 383 kts 147°
2026-05-07 18:04 6.87562 -73.26104 13610 ft 386 kts 164°
2026-05-07 18:04 6.85798 -73.25832 12943 ft 386 kts 175°
2026-05-07 18:04 6.82328 -73.25182 11642 ft 378 kts 154°
2026-05-07 18:05 6.80063 -73.23872 10754 ft 374 kts 146°
2026-05-07 18:05 6.78644 -73.22895 10196 ft 371 kts 143°
2026-05-07 18:05 6.76087 -73.20611 8940 ft 366 kts 131°
2026-05-07 18:05 6.75020 -73.19302 8342 ft 364 kts 126°
2026-05-07 18:06 6.73675 -73.17164 7446 ft 360 kts 117°
2026-05-07 18:06 6.72670 -73.14871 6605 ft 357 kts 108°
2026-05-07 18:06 6.72027 -73.12504 6220 ft 342 kts 100°
2026-05-07 18:06 6.71727 -73.10237 6241 ft 314 kts 91°
2026-05-07 18:07 6.71725 -73.08134 6272 ft 289 kts 85°
2026-05-07 18:07 6.72019 -73.06270 6545 ft 258 kts 68°
2026-05-07 18:07 6.72856 -73.04771 6552 ft 242 kts 47°
2026-05-07 18:07 6.74171 -73.03707 6417 ft 249 kts 25°
2026-05-07 18:08 6.75833 -73.03235 6943 ft 249 kts
2026-05-07 18:08 6.77596 -73.03364 7711 ft 262 kts 346°
2026-05-07 18:08 6.79223 -73.04000 8038 ft 244 kts 329°
2026-05-07 18:08 6.80455 -73.05040 8205 ft 218 kts 312°
2026-05-07 18:09 6.81431 -73.06082 8284 ft 198 kts 326°
2026-05-07 18:09 6.82622 -73.06766 8328 ft 196 kts 333°
2026-05-07 18:09 6.83833 -73.07386 8395 ft 195 kts 338°
2026-05-07 18:09 6.85092 -73.07904 8408 ft 196 kts 338°
2026-05-07 18:10 6.86349 -73.08433 8370 ft 196 kts 339°
2026-05-07 18:10 6.87602 -73.08945 8264 ft 194 kts 339°
2026-05-07 18:10 6.88860 -73.09446 8079 ft 194 kts 339°
2026-05-07 18:10 6.90116 -73.09936 7923 ft 191 kts 339°
2026-05-07 18:11 6.91327 -73.10403 7773 ft 182 kts 339°
2026-05-07 18:11 6.92444 -73.10832 7583 ft 167 kts 339°
2026-05-07 18:11 6.93516 -73.11240 7387 ft 162 kts 339°
2026-05-07 18:11 6.94567 -73.11640 7191 ft 161 kts 339°
2026-05-07 18:12 6.95608 -73.12033 6989 ft 159 kts 339°
2026-05-07 18:12 6.96647 -73.12427 6793 ft 159 kts 339°
2026-05-07 18:12 6.97670 -73.12814 6610 ft 157 kts 339°
2026-05-07 18:12 6.98692 -73.13199 6428 ft 155 kts 339°
2026-05-07 18:13 6.99695 -73.13580 6233 ft 154 kts 339°
2026-05-07 18:13 7.00693 -73.13956 6030 ft 154 kts 340°
2026-05-07 18:13 7.01693 -73.14333 5824 ft 153 kts 339°
2026-05-07 18:13 7.02695 -73.14711 5631 ft 153 kts 339°
2026-05-07 18:14 7.03689 -73.15086 5493 ft 151 kts 339°
2026-05-07 18:14 7.04676 -73.15461 5328 ft 151 kts 340°
2026-05-07 18:14 7.05642 -73.15825 5123 ft 149 kts 340°
2026-05-07 18:14 7.06622 -73.16194 4951 ft 150 kts 340°
2026-05-07 18:15 7.07601 -73.16564 4729 ft 150 kts 338°
2026-05-07 18:15 7.08590 -73.16939 4561 ft 153 kts 339°
2026-05-07 18:15 7.09581 -73.17312 4341 ft 152 kts 339°
2026-05-07 18:15 7.10572 -73.17694 4165 ft 153 kts 339°
2026-05-07 18:16 7.11566 -73.18065 3962 ft 153 kts 339°
2026-05-07 18:16 7.12523 -73.18427 3898 ft 134 kts 339°
2026-05-07 18:16 7.13182 -73.18677 3921 ft 73 kts 339°
2026-05-07 18:16 7.13485 -73.18791 3920 ft 30 kts 339°
2026-05-07 18:17 7.13615 -73.18863 3917 ft 12 kts
2026-05-07 18:17 7.13628 -73.18858 3917 ft 0 kts 37°
2026-05-07 18:17 7.13631 -73.18846 3917 ft 2 kts 91°
2026-05-07 18:17 7.13620 -73.18829 3918 ft 0 kts 143°
2026-05-07 18:18 7.13587 -73.18818 3919 ft 13 kts 161°
2026-05-07 18:18 7.13403 -73.18754 3919 ft 42 kts 161°
2026-05-07 18:18 7.13176 -73.18611 3920 ft 36 kts 115°
2026-05-07 18:18 7.13041 -73.18520 3916 ft 25 kts 161°
2026-05-07 18:19 7.12874 -73.18456 3913 ft 27 kts 159°
2026-05-07 18:19 7.12730 -73.18402 3908 ft 16 kts 159°
2026-05-07 18:19 7.12680 -73.18338 3904 ft 12 kts 100°
2026-05-07 18:19 7.12685 -73.18278 3901 ft 1 kts 92°
2026-05-07 18:20 7.12684 -73.18264 3903 ft 3 kts 96°
2026-05-07 18:20 7.12680 -73.18236 3901 ft 5 kts 96°
2026-05-07 18:20 7.12682 -73.18209 3903 ft 3 kts 63°
2026-05-07 18:20 7.12708 -73.18193 3901 ft 1 kts 13°
2026-05-07 18:21 7.12713 -73.18192 3902 ft 1 kts 14°
2026-05-07 18:21 7.12720 -73.18190 3900 ft 1 kts 12°
2026-05-07 18:21 7.12723 -73.18189 3900 ft 0 kts 12°